Погода в Совхозе Победа

Россия / Калужская область     55°10′14″N   36°45′52″E
темп.,
°C
ветер,
м/с
пор.,
м/с
влажн.,
%
обл.,
%
осадки,
мм/ч
давл.,
гПа
погр.,
м
26 июля, пн
пн2600:00+15з00660 0.0 102210
03:00+13юз11745 0.0 102310
06:00+15ююв116893 0.0 102328
09:00+18ююз3557100 0.0 1023197
12:00+22ююз344882 0.0 1023617
15:00+26зюз353880 0.0 10212546
18:00+22зюз115989 0.0 102121
21:00+19зюз22674 0.0 102123
27 июля, вт
вт2700:00+18зюз227099 0.0 102230
03:00+17з227446 0.0 102229
06:00+18з117475 0.0 102213
09:00+22юз126395 0.0 1022292
12:00+27ю124310 0.0 10211484
15:00+22св336473 0.5 1020187
18:00+17юв369559 3.7 1020105
21:00+18зсз118955 4.3 102012
28 июля, ср
ср2800:00+16ю269478 0.0 1019111
03:00+16ю119139 0.0 101812
06:00+16ююз23925 0.0 101780
09:00+23ю35625 0.0 1016439
12:00+28ю5837100 0.0 10132083
15:00+22з3765100 0.0 1013355
18:00+18ююз31095100 1.8 1012586
21:00+18ююз41097100 1.9 1010489
29 июля, чт
чт2900:00+18юз499877 0.1 1009379
03:00+17зюз3109817 0.1 1009257
06:00+17зюз289626 0.0 1008232
09:00+22зсз49685 0.0 1008568
12:00+27зсз584198 0.0 10082048
15:00+28з5840100 0.0 10082346
18:00+27з364795 0.0 10071080
21:00+21з2468100 0.1 100783
30 июля, пт
пт3000:00+18зюз1296100 1.1 100833
03:00+18зюз239769 1.8 100780
06:00+18зюз259624 0.7 1008183
09:00+20зсз348358 0.7 1008480
12:00+26зсз46440 0.0 10081903
15:00+26зсз56385 0.0 10082092
18:00+25зсз46439 0.0 10081561
21:00+19юз22615 0.0 100811